Погода в Пангкаланбуне

Индонезия     2°36′17″S   111°37′35″E
темп.,
°C
ветер,
м/с
пор.,
м/с
влажн.,
%
обл.,
%
осадки,
мм/ч
давл.,
гПа
погр.,
м
2 марта, вт
вт201:00+26сз118263 0.0 101031
04:00+24сз118466 0.0 100941
07:00+26зсз127650 0.0 1011170
10:00+34ссз124781 0.0 10111274
13:00+37з123873 0.0 10082068
16:00+34юз234669 0.0 10061379
19:00+27ююз267647 0.6 1008305
22:00+24з129660 3.4 1011100
3 марта, ср
ср301:00+24з119681 6.3 101031
04:00+24с1296100 0.4 100975
07:00+24ссв139399 0.6 1011190
10:00+30св236281 0.4 1012792
13:00+32всв335355 0.6 10091221
16:00+30в346840 1.8 1008706
19:00+25в279069 3.4 1010334
22:00+24всв1493100 2.6 1012209
4 марта, чт
чт401:00+24юв0093100 2.9 101125
04:00+23св129499 0.1 101095
07:00+24всв128799 0.1 1012161
10:00+34сз115086 0.0 10121048
13:00+36з114156 0.0 10091847
16:00+32ююз225587 0.0 10071269
19:00+25ююз268794 0.5 1010221
22:00+24юз119198 0.1 101127
5 марта, пт
пт501:00+24ссз119699 0.6 101024
04:00+23сз019798 0.0 101023
07:00+25сз019299 0.0 1012106
10:00+30зюз1367100 2.1 1012836
13:00+34ююз2345100 2.8 10081848
16:00+32ююз2252100 0.5 10081481
19:00+25ссз1189100 2.8 101024
22:00+24ссв1295100 1.5 101265
6 марта, сб
сб601:00+23с119799 2.3 101026
04:00+23св119797 0.0 100937
07:00+24св139489 0.0 1011184
10:00+32св1256100 0.0 1011951
13:00+36с123976 0.0 10082095
16:00+31юв015874 0.0 100659
19:00+26ююз288476 1.4 1009276
22:00+24зюз129463 2.1 101140